TimeCDT,TemperatureF,Dew PointF,Humidity,Sea Level PressureIn,VisibilityMPH,Wind Direction,Wind SpeedMPH,Gust SpeedMPH,PrecipitationIn,Events,Conditions,WindDirDegrees,DateUTC
12:15 AM,55.4,30.2,38,30.33,10.0,ESE,6.9,-,N/A,,Clear,110,2013-03-14 05:15:00
12:35 AM,55.4,28.4,36,30.33,10.0,ESE,8.1,-,N/A,,Clear,110,2013-03-14 05:35:00
12:55 AM,55.4,28.4,36,30.33,10.0,ESE,9.2,-,N/A,,Clear,110,2013-03-14 05:55:00
1:15 AM,55.4,28.4,36,30.33,10.0,ESE,8.1,-,N/A,,Clear,110,2013-03-14 06:15:00
1:35 AM,55.4,28.4,36,30.33,10.0,East,5.8,-,N/A,,Clear,100,2013-03-14 06:35:00
1:55 AM,53.6,28.4,38,30.34,10.0,East,5.8,-,N/A,,Clear,100,2013-03-14 06:55:00
2:15 AM,53.6,30.2,41,30.34,10.0,East,6.9,-,N/A,,Clear,100,2013-03-14 07:15:00
2:35 AM,53.6,30.2,41,30.34,10.0,ESE,6.9,-,N/A,,Clear,110,2013-03-14 07:35:00
2:55 AM,53.6,30.2,41,30.33,10.0,ESE,6.9,-,N/A,,Clear,120,2013-03-14 07:55:00
3:15 AM,53.6,28.4,38,30.32,10.0,SE,8.1,-,N/A,,Clear,130,2013-03-14 08:15:00
3:35 AM,53.6,28.4,38,30.33,10.0,SE,9.2,16.1,N/A,,Clear,140,2013-03-14 08:35:00
3:55 AM,53.6,30.2,41,30.32,10.0,SE,10.4,-,N/A,,Clear,140,2013-03-14 08:55:00
4:15 AM,53.6,30.2,41,30.31,10.0,SE,8.1,-,N/A,,Clear,140,2013-03-14 09:15:00
4:35 AM,51.8,30.2,44,30.31,10.0,SE,9.2,-,N/A,,Clear,130,2013-03-14 09:35:00
4:55 AM,51.8,30.2,44,30.30,10.0,SE,9.2,-,N/A,,Clear,140,2013-03-14 09:55:00
5:15 AM,51.8,30.2,44,30.30,10.0,SE,9.2,-,N/A,,Clear,130,2013-03-14 10:15:00
5:35 AM,51.8,32.0,47,30.30,10.0,SE,8.1,-,N/A,,Clear,140,2013-03-14 10:35:00
5:52 AM,51.8,30.2,44,30.30,20.0,SE,8.1,-,N/A,,Clear,130,2013-03-14 10:52:00
5:55 AM,51.8,32.0,47,30.29,10.0,SE,6.9,-,N/A,,Clear,130,2013-03-14 10:55:00
6:47 AM,51.8,32.0,47,30.31,20.0,SE,6.9,-,N/A,,Clear,130,2013-03-14 11:47:00
7:50 AM,51.8,35.6,54,30.32,13.0,SSE,10.4,-,N/A,,Partly Cloudy,160,2013-03-14 12:50:00
8:49 AM,53.6,35.6,51,30.34,13.0,SSE,11.5,-,N/A,,Partly Cloudy,160,2013-03-14 13:49:00
9:54 AM,59.0,35.6,42,30.35,15.0,South,13.8,-,N/A,,Partly Cloudy,180,2013-03-14 14:54:00
10:47 AM,62.6,37.4,39,30.35,13.0,South,10.4,18.4,N/A,,Partly Cloudy,190,2013-03-14 15:47:00
12:47 PM,69.8,39.2,33,30.31,13.0,South,20.7,26.5,N/A,,Partly Cloudy,170,2013-03-14 17:47:00
1:47 PM,71.6,39.2,31,30.29,13.0,South,16.1,28.8,N/A,,Partly Cloudy,180,2013-03-14 18:47:00
2:58 PM,73.4,41.0,31,30.24,13.0,South,13.8,23.0,N/A,,Partly Cloudy,190,2013-03-14 19:58:00
3:47 PM,75.2,39.2,27,30.23,13.0,South,12.7,20.7,N/A,,Partly Cloudy,190,2013-03-14 20:47:00
4:59 PM,77.0,41.0,28,30.20,13.0,SSW,10.4,18.4,N/A,,Partly Cloudy,210,2013-03-14 21:59:00
5:58 PM,77.0,41.0,28,30.19,13.0,SSW,10.4,18.4,N/A,,Partly Cloudy,210,2013-03-14 22:58:00
6:47 PM,75.2,41.0,29,30.18,13.0,South,12.7,19.6,N/A,,Partly Cloudy,190,2013-03-14 23:47:00
8:47 PM,69.8,42.8,38,30.18,13.0,SSE,11.5,-,N/A,,Partly Cloudy,160,2013-03-15 01:47:00
9:47 PM,68.0,42.8,40,30.18,13.0,South,10.4,19.6,N/A,,Clear,170,2013-03-15 02:47:00
10:15 PM,68.0,41.0,37,30.18,10.0,South,9.2,-,N/A,,Clear,180,2013-03-15 03:15:00
10:35 PM,68.0,41.0,37,30.19,10.0,South,8.1,-,N/A,,Clear,180,2013-03-15 03:35:00
10:55 PM,66.2,41.0,40,30.19,10.0,South,9.2,-,N/A,,Clear,190,2013-03-15 03:55:00
11:15 PM,66.2,41.0,40,30.18,10.0,South,10.4,-,N/A,,Clear,190,2013-03-15 04:15:00
11:35 PM,66.2,41.0,40,30.17,10.0,South,9.2,17.3,N/A,,Clear,180,2013-03-15 04:35:00
11:55 PM,66.2,41.0,40,30.18,10.0,South,9.2,-,N/A,,Clear,190,2013-03-15 04:55:00